This is the latest recevied weather packets stored in our database for station/object IK1AMC-3. If no packets are shown the sender has not sent any weather packets the latest 10 day(s).
| Time | Temp. | Humidity | Pressure | Rain* | Wind** | Luminosity | Snow |
|---|---|---|---|---|---|---|---|
| 1777944000 | 15° C | 81% | 1013.1 hPa | - | - | - | - |
| 1777942798 | 15° C | 82% | 1013.6 hPa | - | - | - | - |
| 1777941597 | 15° C | 82% | 1013.9 hPa | - | - | - | - |
| 1777940395 | 16.67° C | 80% | 1013.9 hPa | - | - | - | - |
| 1777939194 | 16.67° C | 90% | 1014 hPa | - | - | - | - |
| 1777937993 | 17.22° C | 89% | 1014.1 hPa | - | - | - | - |
| 1777936791 | 17.22° C | 84% | 1014.3 hPa | - | - | - | - |
| 1777935590 | 17.22° C | 82% | 1014.7 hPa | - | - | - | - |
| 1777934389 | 17.22° C | 83% | 1014.8 hPa | - | - | - | - |
| 1777933188 | 17.78° C | 82% | 1015.1 hPa | - | - | - | - |
| 1777931986 | 18.33° C | 77% | 1015.3 hPa | - | - | - | - |
| 1777930785 | 18.33° C | 74% | 1015.5 hPa | - | - | - | - |
| 1777929584 | 18.33° C | 73% | 1016 hPa | - | - | - | - |
| 1777928382 | 18.33° C | 71% | 1016.1 hPa | - | - | - | - |
| 1777927181 | 18.33° C | 69% | 1016.2 hPa | - | - | - | - |
| 1777925979 | 18.33° C | 70% | 1016.4 hPa | - | - | - | - |
| 1777924778 | 18.33° C | 71% | 1016.5 hPa | - | - | - | - |
| 1777923577 | 18.89° C | 70% | 1016.5 hPa | - | - | - | - |
| 1777922376 | 18.89° C | 70% | 1016.3 hPa | - | - | - | - |
| 1777921174 | 18.89° C | 69% | 1016.2 hPa | - | - | - | - |
| 1777919973 | 18.89° C | 68% | 1016.2 hPa | - | - | - | - |
| 1777918772 | 18.89° C | 68% | 1016.5 hPa | - | - | - | - |
| 1777917570 | 18.89° C | 67% | 1016.2 hPa | - | - | - | - |
| 1777916369 | 18.89° C | 67% | 1016 hPa | - | - | - | - |
| 1777915168 | 19.44° C | 66% | 1015.9 hPa | - | - | - | - |
* Rain since midnight (hover to see other rain measurements)
** Current wind speed in m/s (hover to see current wind gust speed)